Home   Weather   East London   Past weeks

Flag for South Africa Past Weather in East London, South Africa — Yesterday and Last 2 Weeks

Now
66 °F

Clear.


Feels Like: 66 °F
Forecast: 72 / 80 °F
Wind: 12 mph from East

Location: Port Elizabeth Airport

Current Time: Jan 22, 2017 at 2:07:59 am

Latest Report: Jan 22, 2017 at 1:00 am


Visibility: 10 mi

Pressure: 29.98 "Hg

Humidity: 88%

Dew Point: 63 °F

Location of East LondonLocation

Past Weather in East London — Graph

°F

East London Temperature Yesterday

Maximum temperature yesterday: 75 °F (at 11:00 am)
Minimum temperature yesterday: 57 °F (at 5:00 am)
Average temperature yesterday: 67 °F

High & Low Weather Summary for the Past Weeks

 TemperatureHumidityPressure
High86 °F (Jan 11, 2:00 pm)100% (Jan 14, 2:00 am)30.27 "Hg (Jan 14, 2:00 am)
Low57 °F (Jan 8, 2:00 am)44% (Jan 17, 1:31 pm)29.62 "Hg (Jan 11, 5:00 pm)
Average70 °F71%29.96 "Hg
* Reported Jan 7 12:00 am — Jan 22 12:00 am, East London, Weather by CustomWeather, © 2017

Note: Actual official high and low records may vary slightly from our data, if they occured in-between our weather recording intervals... More about our weather records

Advertising

East London Weather History for the Previous 24 Hours

Scroll right to see more
 ConditionsComfort  
Time TempWeatherWind HumidityBarometerVisibility
12:00 am
Sun, Jan 22
66 °FClear.14 mph88%30.01 "Hg10 mi
9:00 pm
Sat, Jan 21
68 °FClear.14 mph78%30.04 "Hg10 mi
8:00 pm68 °FClear.13 mph83%30.01 "Hg10 mi
7:00 pm70 °FSunny.14 mph78%30.01 "Hg10 mi
6:00 pm73 °FPassing clouds.13 mph65%30.01 "HgN/A
5:00 pm73 °FPassing clouds.15 mph65%30.01 "HgN/A
4:00 pm75 °FPassing clouds.15 mph50%30.04 "HgN/A
3:00 pm75 °FPassing clouds.13 mph47%30.04 "HgN/A
2:00 pm75 °FPassing clouds.10 mph50%30.04 "HgN/A
1:00 pm73 °FPassing clouds.9 mph53%30.07 "HgN/A
12:00 pm73 °FPassing clouds.9 mph53%30.07 "HgN/A
11:00 am75 °FPassing clouds.10 mph50%30.09 "HgN/A
10:00 am72 °FPassing clouds.6 mph53%30.09 "HgN/A
9:00 am70 °FPassing clouds.9 mph57%30.09 "HgN/A
8:25 am70 °FPassing clouds.8 mph57%30.09 "HgN/A
8:00 am66 °FSunny.8 mph68%30.09 "Hg10 mi
7:26 am66 °FPassing clouds.8 mph68%30.09 "HgN/A
7:01 am63 °FPassing clouds.5 mph77%30.09 "HgN/A
6:00 am59 °FSunny.7 mph88%30.07 "Hg10 mi
5:43 am59 °FSunny.7 mph88%30.07 "Hg10 mi
5:00 am57 °FClear.9 mph94%30.07 "Hg10 mi
4:00 am59 °FClear.8 mph88%30.07 "Hg10 mi
3:00 am61 °FClear.10 mph77%30.07 "Hg10 mi
2:00 am61 °FClear.9 mph83%30.07 "Hg10 mi
Weather by CustomWeather, © 2017

See weather overviewHow to use our weather pages